Jamestown, NY

5:53 PM EDT on March 27, 2017 (GMT -0400)
Chautauqua County-Jamestown

Weather History for KJHW - January, 2012

Change the Weather History Date:

Monday, January 2, 2012

  Actual Average Record
Temperature  
Mean Temperature 24 °F -  
Max Temperature 28 °F 36 °F 61 °F (1985)
Min Temperature 19 °F 18 °F -2 °F (1999)
Degree Days  
Heating Degree Days 42    
Moisture  
Dew Point 19 °F    
Average Humidity 81    
Maximum Humidity 93    
Minimum Humidity 68    
Precipitation  
Precipitation 0.00 in - - ()
Sea Level Pressure  
Sea Level Pressure 29.74 in    
Wind  
Wind Speed 15 mph (West)    
Max Wind Speed 22 mph    
Max Gust Speed 33 mph    
Visibility 3 miles    
Events      
Averages and records for this station are not official NWS values.
T = Trace of Precipitation, MM = Missing Value Source: NWS Daily Summary

Daily Weather History Graph

Daily Weather History Graph

Search for Another Location

Airport or City:

Trip Planner

Search our weather history database for the weather conditions in past years. The results will help you decide how hot, cold, wet, or windy it might be!

Date:

Astronomy

Jan. 02, 2012 Rise Set
Actual Time 7:45 AM EST 4:56 PM EST
Civil Twilight 7:14 AM EST 5:27 PM EST
Nautical Twilight 6:38 AM EST 6:03 PM EST
Astronomical Twilight 6:04 AM EST 6:37 PM EST
Moon 12:14 PM EST (1/2) 1:33 AM EST (1/2)
Length of Visible Light 10h 13m
Length of Day
9h 10m
Waxing Gibbous, 63% of the Moon is Illuminated
Jan 2
Waxing Gibbous
Jan 9
Full
Jan 16
Last Quarter
Jan 23
New
Jan 30
First Quarter

Hourly Weather History & Observations

Time (EST) Temp. Windchill Dew Point Humidity Pressure Visibility Wind Dir Wind Speed Gust Speed Precip Events Conditions
12:15 AM 28.4 °F 14.7 °F 21.2 °F 74% 29.71 in 3.0 mi WSW 21.9 mph 33.4 mph N/A   Overcast
12:35 AM 28.4 °F 15.4 °F 21.2 °F 74% 29.69 in 9.0 mi SW 19.6 mph 29.9 mph N/A   Overcast
1:15 AM 26.6 °F 13.8 °F 21.2 °F 80% 29.69 in 4.0 mi WSW 17.3 mph 27.6 mph N/A   Overcast
1:35 AM 26.6 °F 13.1 °F 24.8 °F 93% 29.71 in 0.2 mi West 19.6 mph 28.8 mph N/A   Overcast
1:55 AM 24.8 °F 13.4 °F 23.0 °F 93% 29.70 in 1.0 mi SW 12.7 mph 17.3 mph N/A   Overcast
2:15 AM 26.6 °F 13.8 °F 23.0 °F 86% 29.70 in 0.2 mi SW 17.3 mph 23.0 mph N/A   Overcast
2:35 AM 26.6 °F 15.7 °F 23.0 °F 86% 29.70 in 1.0 mi SW 12.7 mph - N/A   Overcast
3:15 AM 24.8 °F 11.5 °F 21.2 °F 86% 29.70 in 0.2 mi WSW 17.3 mph 26.5 mph N/A   Overcast
3:35 AM 24.8 °F 12.4 °F 21.2 °F 86% 29.69 in 0.5 mi SW 15.0 mph 23.0 mph N/A   Overcast
3:55 AM 24.8 °F 13.4 °F 21.2 °F 86% 29.69 in 1.8 mi SW 12.7 mph - N/A   Overcast
4:15 AM 24.8 °F 11.9 °F 21.2 °F 86% 29.69 in 0.8 mi SW 16.1 mph 21.9 mph N/A   Overcast
4:35 AM 24.8 °F 13.4 °F 21.2 °F 86% 29.67 in 1.2 mi SW 12.7 mph 19.6 mph N/A   Overcast
4:55 AM 24.8 °F 12.4 °F 21.2 °F 86% 29.68 in 1.0 mi SW 15.0 mph 21.9 mph N/A   Overcast
5:35 AM 24.8 °F 12.9 °F 23.0 °F 93% 29.68 in 1.2 mi WSW 13.8 mph 21.9 mph N/A   Overcast
5:55 AM 26.6 °F 14.7 °F 21.2 °F 80% 29.68 in 7.0 mi WSW 15.0 mph - N/A   Overcast
6:15 AM 26.6 °F 16.8 °F 23.0 °F 86% 29.68 in 2.5 mi SW 10.4 mph - N/A   Overcast
6:35 AM 26.6 °F 15.7 °F 21.2 °F 80% 29.69 in 0.5 mi West 12.7 mph 21.9 mph N/A   Overcast
6:55 AM 24.8 °F 13.4 °F 21.2 °F 86% 29.68 in 1.0 mi WSW 12.7 mph - N/A   Overcast
7:15 AM 24.8 °F 10.7 °F 21.2 °F 86% 29.69 in 3.0 mi West 19.6 mph 32.2 mph N/A   Overcast
7:35 AM 24.8 °F 12.9 °F 19.4 °F 80% 29.69 in 2.5 mi West 13.8 mph 24.2 mph N/A   Overcast
7:55 AM 24.8 °F 12.4 °F 21.2 °F 86% 29.70 in 2.5 mi West 15.0 mph 21.9 mph N/A   Overcast
8:15 AM 24.8 °F 14.0 °F 19.4 °F 80% 29.70 in 10.0 mi West 11.5 mph 23.0 mph N/A   Overcast
8:35 AM 26.6 °F 16.2 °F 19.4 °F 74% 29.70 in 10.0 mi West 11.5 mph - N/A   Overcast
8:55 AM 24.8 °F 11.9 °F 19.4 °F 80% 29.71 in 1.2 mi West 16.1 mph 24.2 mph N/A   Overcast
9:15 AM 24.8 °F 14.0 °F 21.2 °F 86% 29.71 in 1.0 mi WSW 11.5 mph - N/A   Overcast
9:35 AM 24.8 °F 13.4 °F 21.2 °F 86% 29.71 in 1.8 mi West 12.7 mph 19.6 mph N/A   Overcast
10:15 AM 24.8 °F 12.9 °F 19.4 °F 80% 29.72 in 2.5 mi West 13.8 mph 19.6 mph N/A   Overcast
10:35 AM 24.8 °F 12.4 °F 21.2 °F 86% 29.72 in 1.0 mi WSW 15.0 mph 19.6 mph N/A   Overcast
11:15 AM 24.8 °F 13.4 °F 21.2 °F 86% 29.72 in 2.0 mi West 12.7 mph 19.6 mph N/A   Overcast
11:35 AM 24.8 °F 12.9 °F 19.4 °F 80% 29.71 in 3.0 mi West 13.8 mph 20.7 mph N/A   Overcast
11:55 AM 26.6 °F 16.2 °F 19.4 °F 74% 29.71 in 1.5 mi West 11.5 mph 20.7 mph N/A   Overcast
12:15 PM 24.8 °F 12.9 °F 19.4 °F 80% 29.71 in 1.8 mi WNW 13.8 mph 19.6 mph N/A   Overcast
12:55 PM 24.8 °F 11.5 °F 19.4 °F 80% 29.71 in 1.5 mi West 17.3 mph 21.9 mph N/A   Overcast
1:15 PM 24.8 °F 14.0 °F 19.4 °F 80% 29.71 in 1.0 mi West 11.5 mph 19.6 mph N/A   Overcast
1:35 PM 24.8 °F 13.4 °F 19.4 °F 80% 29.71 in 1.8 mi West 12.7 mph 19.6 mph N/A   Overcast
1:55 PM 24.8 °F 13.4 °F 19.4 °F 80% 29.71 in 1.2 mi West 12.7 mph 19.6 mph N/A   Overcast
2:15 PM 24.8 °F 14.0 °F 17.6 °F 74% 29.72 in 2.5 mi WNW 11.5 mph 18.4 mph N/A   Overcast
2:35 PM 24.8 °F 14.0 °F 19.4 °F 80% 29.72 in 1.0 mi WNW 11.5 mph 17.3 mph N/A   Overcast
2:55 PM 24.8 °F 13.4 °F 19.4 °F 80% 29.73 in 1.0 mi West 12.7 mph 16.1 mph N/A   Overcast
3:35 PM 23.0 °F 11.1 °F 19.4 °F 86% 29.75 in 0.2 mi NW 12.7 mph 23.0 mph N/A   Overcast
3:55 PM 23.0 °F 11.1 °F 19.4 °F 86% 29.75 in 0.8 mi WNW 12.7 mph 20.7 mph N/A   Overcast
4:15 PM 23.0 °F 10.6 °F 19.4 °F 86% 29.76 in 0.5 mi WNW 13.8 mph 20.7 mph N/A   Overcast
4:35 PM 23.0 °F 11.1 °F 19.4 °F 86% 29.77 in 0.8 mi West 12.7 mph 20.7 mph N/A   Overcast
4:55 PM 21.2 °F 9.5 °F 17.6 °F 86% 29.77 in 4.0 mi West 11.5 mph - N/A   Overcast
5:15 PM 23.0 °F 11.7 °F 17.6 °F 80% 29.79 in 1.0 mi WNW 11.5 mph - N/A   Overcast
5:35 PM 21.2 °F 10.9 °F 17.6 °F 86% 29.79 in 7.0 mi West 9.2 mph - N/A   Mostly Cloudy
5:55 PM 23.0 °F 10.6 °F 17.6 °F 80% 29.79 in 3.0 mi NW 13.8 mph 20.7 mph N/A   Overcast
6:15 PM 21.2 °F 6.8 °F 15.8 °F 80% 29.79 in 10.0 mi WNW 17.3 mph - N/A   Overcast
6:35 PM 21.2 °F 8.3 °F 17.6 °F 86% 29.80 in 2.0 mi WNW 13.8 mph 29.9 mph N/A   Overcast
6:55 PM 21.2 °F 7.3 °F 17.6 °F 86% 29.80 in 7.0 mi WNW 16.1 mph 20.7 mph N/A   Overcast
7:15 PM 21.2 °F 8.3 °F 15.8 °F 80% 29.81 in 9.0 mi WNW 13.8 mph 20.7 mph N/A   Mostly Cloudy
7:35 PM 21.2 °F 7.3 °F 17.6 °F 86% 29.82 in 2.0 mi NW 16.1 mph 23.0 mph N/A   Overcast
7:55 PM 21.2 °F 8.3 °F 14.0 °F 74% 29.82 in 5.0 mi NW 13.8 mph 23.0 mph N/A   Overcast
8:35 PM 21.2 °F 7.3 °F 15.8 °F 80% 29.83 in 5.0 mi NW 16.1 mph 24.2 mph N/A   Overcast
8:55 PM 21.2 °F 8.3 °F 14.0 °F 74% 29.83 in 9.0 mi NW 13.8 mph 23.0 mph N/A   Overcast
9:15 PM 21.2 °F 7.3 °F 12.2 °F 68% 29.83 in 5.0 mi NW 16.1 mph 23.0 mph N/A   Overcast
9:35 PM 21.2 °F 7.8 °F 12.2 °F 68% 29.84 in 9.0 mi NW 15.0 mph 19.6 mph N/A   Overcast
9:55 PM 21.2 °F 9.5 °F 12.2 °F 68% 29.84 in 10.0 mi NW 11.5 mph 20.7 mph N/A   Overcast
10:35 PM 19.4 °F 5.5 °F 12.2 °F 74% 29.85 in 6.0 mi NNW 15.0 mph 21.9 mph N/A   Overcast
10:55 PM 19.4 °F 5.5 °F 12.2 °F 74% 29.85 in 10.0 mi NNW 15.0 mph 21.9 mph N/A   Overcast
11:15 PM 19.4 °F 6.6 °F 12.2 °F 74% 29.85 in 6.0 mi NW 12.7 mph 19.6 mph N/A   Mostly Cloudy
11:35 PM 19.4 °F 6.0 °F 12.2 °F 74% 29.85 in 5.0 mi NW 13.8 mph 23.0 mph N/A   Mostly Cloudy
11:55 PM 19.4 °F 10.4 °F 14.0 °F 80% 29.85 in 3.0 mi NW 6.9 mph - N/A   Overcast